Regional Weather Roundup
Issued by NWS

Home | Current Version | Previous Version | Graphics & Text | Print | Product List | Glossary On
Versions: 1 2 3 4 5 6 7 8 9 10 11 12 13 14 15 16 17 18 19 20 21 22 23 24 25 26 27 28 29 30 31 32 33 34 35 36 37 38 39 40 41 42 43 44 45 46 47 48 49 50
000
ASUS45 KBOU 050707
RWRCO

WEATHER ROUNDUP FOR COLORADO
NATIONAL WEATHER SERVICE DENVER/BOULDER CO
1200 AM MST THU MAR 05 2015

NOTE: "FAIR" INDICATES FEW OR NO CLOUDS BELOW 12000 FEET WITH NO
SIGNIFICANT WEATHER AND/OR OBSTRUCTIONS TO VISIBILITY.

COZ001>005-013-030-031-050800-
...NORTHWEST COLORADO...

CITY           SKY/WX    TMP DP  RH WIND       PRES   REMARKS
CRAIG          PTCLDY     6   0  76 CALM      30.30R
HAYDEN         PTCLDY     7   0  72 SE12      30.28R WCI  -9
MEEKER         PTCLDY    13   4  67 E6        30.29S WCI   4
MOUNT WERNER   NOT AVBL
STEAMBOAT SPGS PTCLDY     2  -5  72 CALM      30.29R
WALDEN         PTCLDY    -2  -9  71 SE7       30.19R WCI -16
$$

COZ006>008-011-050800-
...WEST CENTRAL VALLEYS...

CITY           SKY/WX    TMP DP  RH WIND       PRES   REMARKS
GRAND JUNCTION CLEAR     26  13  57 E12       30.31R WCI  16
MONTROSE       PTCLDY    23  13  65 SE9       30.33R WCI  13
EAGLE          PTCLDY     9   3  78 CALM      30.36R
RIFLE          PTCLDY    20   7  57 CALM      30.34R
DELTA          PTCLDY    27  13  54 NE9       30.33R WCI  18
NUCLA          NOT AVBL
$$

COZ017>023-064>068-050800-
...SOUTHWEST COLORADO...

CITY           SKY/WX    TMP DP  RH WIND       PRES   REMARKS
DURANGO        PTCLDY    17   5  59 NE3       30.23R
CORTEZ         CLEAR     21  13  71 NE6       30.29R WCI  13
PAGOSA SPRINGS PTCLDY     9   0  65 CALM      30.23R
TELLURIDE      PTCLDY    11   2  67 SE6       30.25R WCI   1
WOLF CREEK PAS   N/A      0  -2  92 N9        30.15R WCI -16
$$

COZ009-010-012-014-032>034-037-058>063-050800-
...CENTRAL COLORADO...

CITY           SKY/WX    TMP DP  RH WIND       PRES   REMARKS
ASPEN          PTCLDY     5  -5  63 SW9       30.27R WCI  -9
BUENA VISTA    PTCLDY    13  -4  47 NW17G26   30.19S WCI  -4
COPPER MTN     NOT AVBL
BERTHOUD PASS  CLOUDY    -8 -15  71 N21G32    29.99S WCI -32
COTTONWOOD PAS PTCLDY    14 -18  22 W12G25    30.12R WCI   0
GUNNISON       PTCLDY     3  -6  66 CALM      30.29S
KREMMLING      CLEAR      3  -4  72 CALM      30.29R
LEADVILLE      PTCLDY    -9 -16  71 NE10      30.15R WCI -27
SALIDA         PTCLDY    13   1  59 W7        30.30R WCI   2
SUNLIGHT       PTCLDY     7   1  78 CALM        N/A
WILKERSON PASS CLEAR      5 -18  33 NW8G18    30.05S WCI  -8
$$

COZ069>075-050800-
...SAN LUIS VALLEY/SANGRE DE CRISTO MOUNTAINS...

CITY           SKY/WX    TMP DP  RH WIND       PRES   REMARKS
ALAMOSA        PTCLDY    17   6  62 N7        30.20S WCI   8
LA VETA PASS   PTCLDY     5   0  78 S13       30.08F WCI -12
SAGUACHE       PTCLDY    19   0  42 N13G18    30.21R WCI   7
$$

COZ035-036-038>040-050800-
...NORTHERN COLORADO FRONT RANGE...

CITY           SKY/WX    TMP DP  RH WIND       PRES   REMARKS
DENVER INTL AP CLEAR      5  -1  76 S13       30.19F WCI -12
DMNS CITY PARK   N/A     11   5  78 S7        30.19F WCI   0
AURORA         PTCLDY    10   2  69 S13       30.18F WCI  -5
FRONT RANGE AP CLEAR      7   1  78 S15       30.19F WCI -11
ERIE MUNI ARPT CLEAR     13   7  77 CALM      30.20F
BOULDER MUN AP CLEAR     10   5  79 CALM      30.18F
CENTENNIAL     CLEAR     10   2  69 S9        30.17F WCI  -3
BROOMFIELD     CLEAR     10   5  79 SW5       30.17F WCI   2
FORT COLLINS   CLEAR     10   5  79 CALM      30.21F
LONGMONT       CLEAR      7   2  78 CALM      30.23F
$$

COZ041-046-047-076>085-087-088-050800-
...PIKES PEAK/PALMER DIVIDE AND SOUTHERN FOOTHILLS...

CITY           SKY/WX    TMP DP  RH WIND       PRES   REMARKS
COLO. SPRINGS  LGT SNOW   9   6  88 CALM      30.23F FOG
A. F. ACADEMY  FLURRIES   6   3  86 SW1       30.19F
ELLICOTT       NOT AVBL
FALCON         FLURRIES   4   2  90 W10       30.18F WCI -11
FORT CARSON    CLEAR     -3  -7  84 NW6       30.23F WCI -15
LIMON          CLEAR      1  -3  83 VRB3      30.22F
MONUMENT HILL  CLEAR      1  -4  78 SW9       30.13F WCI -14
TRINIDAD       PTCLDY     4   0  83 SW13      30.26F WCI -13
$$

COZ042>045-048>051-090-091-050800-
...NORTHEAST COLORADO...

CITY           SKY/WX    TMP DP  RH WIND       PRES   REMARKS
GREELEY ARPT   CLEAR      7   0  72 CALM      30.22F
AKRON          CLEAR     12   6  77 SW13      30.23F WCI  -3
BURLINGTON     CLEAR     15   6  67 W10       30.28S WCI   2
WRAY           CLEAR     15   9  77 W8        30.29F WCI   3
STERLING       CLEAR     10   7  85 SW7       30.27S WCI   0
HOLYOKE        NOT AVBL
FORT MORGAN    CLEAR      9   4  82 W5        30.26S WCI   1
$$

COZ086-089-092>099-050800-
...SOUTHEAST COLORADO...

CITY           SKY/WX    TMP DP  RH WIND       PRES   REMARKS
PUEBLO         PTCLDY     7   4  87 CALM      30.31F
LA JUNTA       CLEAR     14   8  77 W12       30.33F WCI   0
LAMAR          CLEAR     15  12  88 SW7       30.34F WCI   5
SPRINGFIELD      N/A      8   3  80 W8        30.32F WCI  -4
$$


USA.gov is the U.S. government's official web portal to all federal, state and local government web resources and services.